Location: Misciano
(43.5000°N, 11.9500°E)
Time: 06:12:15
(UTC+00:00)

ERS-1 Rocket - Pass Details

Date: 13 August 2020
Orbit: 754 x 757 km, 98.5° (Epoch: 26 September)

Event Time Altitude Azimuth Distance (km) Brightness Sun altitude
Exits shadow 21:36:11 33° 249° (WSW) 1,252 4.1 -27.8°
Maximum altitude 21:36:45 34° 263° (W) 1,230 4.2 -27.8°
Drops below altitude 10° 21:41:19 10° 328° (NNW) 2,288 6.4 -28.2°
Sets 21:43:49 0° 338° (NNW) 3,217 7.5 -28.4°
